This is the latest recevied weather packets stored in our database for station/object KG4GJX. If no packets are shown the sender has not sent any weather packets the latest 10 day(s).
| Time | Temp. | Humidity | Pressure | Rain* | Wind** | Luminosity | Snow |
|---|---|---|---|---|---|---|---|
| 1777315163 | 26.67° C | 55% | 1017.2 hPa | 0 mm | - | - | - |
| 1777314501 | 26.67° C | 56% | 1017.6 hPa | 0 mm | - | - | - |
| 1777313838 | 26.67° C | 53% | 1017.6 hPa | 0 mm | - | - | - |
| 1777313176 | 26.11° C | 57% | 1017.9 hPa | 0 mm | - | - | - |
| 1777312513 | 26.11° C | 58% | 1017.9 hPa | 0 mm | - | - | - |
| 1777311851 | 25.56° C | 61% | 1018.2 hPa | 0 mm | - | - | - |
| 1777311188 | 25.56° C | 61% | 1018.2 hPa | 0 mm | - | - | - |
| 1777310526 | 25° C | 62% | 1018.2 hPa | 0 mm | - | - | - |
| 1777309864 | 25° C | 62% | 1018.2 hPa | 0 mm | - | - | - |
| 1777309202 | 24.44° C | 63% | 1018.6 hPa | 0 mm | - | - | - |
| 1777306886 | 24.44° C | 63% | 1018.9 hPa | 0 mm | - | - | - |
| 1777306223 | 23.89° C | 65% | 1018.9 hPa | 0 mm | - | - | - |
| 1777305561 | 23.89° C | 61% | 1018.9 hPa | 0 mm | - | - | - |
| 1777304898 | 23.89° C | 66% | 1019.3 hPa | 0 mm | - | - | - |
| 1777304236 | 23.33° C | 65% | 1019.6 hPa | 0 mm | - | - | - |
| 1777303574 | 22.78° C | 67% | 1019.6 hPa | 0 mm | - | - | - |
| 1777302911 | 22.78° C | 69% | 1019.6 hPa | 0 mm | - | - | - |
| 1777302249 | 22.22° C | 70% | 1019.3 hPa | 0 mm | - | - | - |
| 1777301586 | 22.22° C | 71% | 1019.3 hPa | 0 mm | - | - | - |
| 1777300924 | 21.67° C | 77% | 1019.3 hPa | 0 mm | - | - | - |
| 1777300261 | 21.11° C | 77% | 1018.9 hPa | 0 mm | - | - | - |
| 1777299599 | 20.56° C | 77% | 1019.3 hPa | 0 mm | - | - | - |
| 1777298936 | 20° C | 84% | 1019.3 hPa | 0 mm | - | - | - |
| 1777298274 | 19.44° C | 86% | 1019.3 hPa | 0 mm | - | - | - |
| 1777297607 | 18.89° C | 90% | 1018.9 hPa | 0 mm | - | - | - |
* Rain latest hour (hover to see other rain measurements)
** Current wind speed in m/s (hover to see current wind gust speed)